Temp
17 18 17 17 16 16 16 15 15 15 15 15 14 14 14 14 14 13 13 13 13 13
17 17 16 16 16 15 15 15 15 15 15 14 14 13 13 13 13 13 12 12 12 12
17 17 16 16 15 15 15 15 15 14 14 13 13 12 12 12 12 12 12 11 11 11
16 16 16 15 15 15 15 14 14 14 13 12 12 12 11 11 11 11 10 10 10 10
16 15 16 15 15 15 15 14 13 13 12 12 11 11 11 11 10 10 9 9 9 9
16 16 16 15 15 14 14 13 13 12 12 11 11 10 10 9 9 9 8 8 8 8
16 16 16 15 14 14 13 13 12 11 11 11 10 9 9 9 8 8 7 7 7 7
15 15 15 14 14 13 12 12 11 10 10 9 9 9 8 8 7 7 7 7 6 7
15 14 14 13 12 12 11 11 10 9 9 8 8 8 7 7 6 6 6 6 6 6
14 13 12 12 12 11 10 9 9 8 7 7 7 6 6 6 6 6 6 6 6 6
10 10 10 10 10 9 8 8 7 7 6 6 6 6 6 5 5 6 6 7 6 6
9 8 8 9 8 8 7 7 7 6 6 5 6 6 6 6 6 6 7 6 6 6
6 5 6 7 7 7 6 6 6 6 6 5 6 6 6 6 6 6 6 6 6 6
5 5 6 6 6 6 6 6 6 5 5 5 5 6 6 6 6 6 6 6 6 5
Height
798 801 804 808 810 814 817 819 820 821 821 821 820 820 820 819 818 817 815 814 814 814
798 802 805 809 811 812 817 819 818 820 820 820 819 820 819 819 818 817 816 815 814 813
798 803 805 808 810 812 815 819 818 819 820 819 818 819 819 819 818 817 816 815 814 812
799 802 803 806 809 809 813 817 818 818 819 820 818 817 817 818 817 816 815 814 813 812
797 805 804 805 805 808 810 814 816 816 816 818 819 816 816 816 815 815 815 813 812 810
795 802 805 804 806 806 808 811 814 814 814 814 818 816 815 816 815 814 813 812 811 809
792 798 803 805 807 808 808 810 812 812 811 811 814 815 813 813 813 812 810 811 810 807
791 796 803 806 808 810 810 811 812 811 811 811 813 812 810 809 808 808 806 806 807 804
790 793 801 809 812 815 812 810 809 811 812 811 810 807 806 805 805 804 803 802 801 800
791 798 802 804 806 811 815 814 810 808 810 810 808 807 805 803 801 800 799 799 798 796
794 799 802 803 806 805 812 813 813 811 808 807 807 804 803 802 799 796 796 795 794 794
791 798 804 802 801 803 805 810 812 810 806 804 802 802 801 798 799 794 793 792 791 792
798 798 805 808 803 805 806 810 813 806 806 804 801 800 796 794 794 791 791 790 788 788
795 795 803 814 803 807 810 806 806 805 802 799 799 797 794 792 789 787 787 786 785 785
Wind_Speed
30 28 26 23 21 19 16 14 12 12 12 12 12 12 13 14 14 13 11 13 14 14
31 28 26 23 20 19 14 12 10 10 11 11 11 11 12 13 13 13 11 12 14 15
30 27 26 23 20 17 13 8 7 9 10 10 10 11 12 12 11 10 10 11 14 16
29 27 25 21 18 14 10 5 6 8 9 10 11 11 12 13 9 7 8 11 15 18
28 24 23 21 17 12 9 5 4 6 8 10 11 11 13 9 6 7 10 13 17 22
28 25 22 19 15 13 9 6 4 3 5 8 9 10 7 6 6 7 8 13 18 23
30 27 22 17 15 11 8 6 5 3 4 7 8 7 7 6 6 7 9 13 17 20
32 25 20 16 13 10 8 7 5 2 3 5 6 7 6 3 4 7 12 15 17 16
27 24 19 13 8 6 6 4 3 1 3 5 7 7 1 5 9 11 12 14 14 14
24 19 15 13 11 6 2 1 1 3 6 7 7 5 8 10 11 12 13 11 12 11
23 21 17 13 9 7 4 7 9 10 11 12 13 10 10 10 12 11 11 10 11 11
23 16 8 6 6 5 7 9 11 12 14 12 11 12 11 13 14 14 13 11 10 11
15 15 9 6 6 6 5 6 9 8 8 11 13 13 12 13 15 13 16 14 13 13
14 11 5 1 5 3 4 6 7 8 10 11 13 14 16 16 17 17 17 15 15 16
Wind_Direction
145 141 138 136 131 122 112 100 86 68 54 42 34 33 24 19 17 16 23 21 19 16
147 146 141 136 131 124 116 104 84 57 43 35 32 26 19 14 14 10 12 14 9 9
150 150 147 145 137 130 119 105 77 56 40 36 32 20 14 15 13 5 11 9 4 359
152 155 153 150 144 135 127 100 65 50 38 27 21 14 9 4 4 11 9 3 359 353
158 162 159 157 153 150 143 125 87 57 40 22 9 7 359 9 26 14 2 359 351 344
166 173 174 167 162 158 152 147 135 76 48 31 7 11 36 19 359 356 357 355 347 342
179 181 178 174 171 167 164 162 154 126 49 17 9 2 341 332 333 337 340 337 341 342
184 180 177 172 171 170 160 148 138 96 38 14 357 344 339 335 341 339 344 339 340 339
183 170 164 161 154 151 140 142 129 91 341 334 338 351 268 329 322 321 327 336 336 344
158 150 147 145 147 138 125 90 52 355 335 337 347 334 316 315 318 318 314 310 323 335
123 117 118 117 104 91 32 360 348 339 334 325 316 313 318 321 318 315 317 309 305 310
108 97 79 100 81 47 10 339 331 336 338 323 316 310 308 318 309 308 306 306 292 294
72 75 59 32 46 29 15 335 312 332 323 319 318 311 306 311 312 305 305 298 295 290
90 90 89 343 60 27 315 328 326 311 315 319 316 319 312 306 301 298 292 290 293 294